Location: Unspecified
(30.3891°N, 0.0000°E)
Time: 13:53:48
(UTC+00:00)

Transit 2A - Visible Passes

Search period start: 04 April 2026 00:00
Search period end: 14 April 2026 00:00
Orbit: 591 x 953 km, 66.7° (Epoch: 29 March)

Date Brightness Start Highest point End Pass type
(mag) Time Alt. Az. Time Alt. Az. Time Alt. Az.
4 Apr 9.1 01:30:35 12° NNE 01:30:35 12° NNE 01:31:01 10° NNE visible
5 Apr 8.8 02:35:23 11° NNW 02:35:23 11° NNW 02:35:53 10° NNW visible
6 Apr 9.0 01:59:49 12° N 01:59:49 12° N 02:00:20 10° N visible
7 Apr 9.1 01:24:14 11° N 01:24:14 11° N 01:24:26 10° N visible
